Miscellaneous Local Product
Issued by NWS Hastings, NE

Home | Current Version | Previous Version | Text Only | Print | Product List | Glossary On
Versions: 1 2 3 4 5 6 7 8 9 10 11 12 13 14 15 16 17 18 19 20 21 22 23 24 25 26 27 28 29 30 31 32 33 34 35 36 37 38 39 40 41 42 43 44 45 46 47 48 49 50
290
AXUS43 KGID 241702
MISGRI

GID CWA HOURLY WEATHER ROUNDUP
NATIONAL WEATHER SERVICE HASTINGS NE
1200 PM CDT MON APR 24 2017

NOTE: "FAIR" INDICATES FEW OR NO CLOUDS BELOW 12,000 FEET WITH NO
SIGNIFICANT WEATHER AND/OR OBSTRUCTIONS TO VISIBILITY.

...SOUTH CENTRAL NEBRASKA...

CITY           SKY/WX    TMP DP  RH WIND       PRES   REMARKS
GRAND ISLAND   CLOUDY    63  38  39 SW16G26   29.56F
HASTINGS       CLOUDY    65  38  36 S14G26    29.56F
KEARNEY        CLOUDY    59  36  41 SW14      29.55F
ORD            MOSUNNY   62  40  44 S12       29.55R
YORK           SUNNY     68  37  32 S30G40    29.58F
AURORA         CLOUDY    64  37  36 S21G30    29.57S
LEXINGTON      CLOUDY    62  39  43 W8        29.57R
HOLDREGE       CLOUDY    59  37  43 CALM      29.53F
HEBRON         SUNNY     67  36  31 S30G41    29.59F

...NEBRASKA PANHANDLE...

CITY           SKY/WX    TMP DP  RH WIND       PRES   REMARKS
CHADRON        MOSUNNY   59  44  57 NE8       29.62F
ALLIANCE       CLOUDY    61  37  41 MISG      29.63S
SCOTTSBLUFF    MOSUNNY   62  36  37 NW16G25   29.66S
SIDNEY         SUNNY     62  40  44 NW20G31   29.66R

...WESTERN AND NORTH CENTRAL NEBRASKA...

CITY           SKY/WX    TMP DP  RH WIND       PRES   REMARKS
VALENTINE      CLOUDY    52  38  58 NW18      29.60S
AINSWORTH      CLOUDY    49  40  73 N21G26    29.58R
ONEILL         PTSUNNY   60  38  43 S15       29.57R
BROKEN BOW     CLOUDY    59  39  47 SW9       29.55S
IMPERIAL       CLOUDY    67  40  37 NW23G30   29.59S
NORTH PLATTE   CLOUDY    66  47  50 NW7       29.54F
MCCOOK         MOSUNNY   70  42  36 NW16G26   29.55R

...EASTERN NEBRASKA...

CITY           SKY/WX    TMP DP  RH WIND       PRES   REMARKS
NORFOLK        PTSUNNY   65  37  35 S23G33    29.57F
SO SIOUX CITY  CLOUDY    67  38  34 S24G36    29.64F
TEKAMAH        MOSUNNY   68  40  35 S24G33    29.65F
COLUMBUS       MOSUNNY   70  39  32 S23G33    29.59F
ALBION         CLOUDY    65  39  37 S15G23    29.55F
OMAHA EPPLEY   PTSUNNY   67  34  29 S31G38    29.66F
OFFUTT AFB     PTSUNNY   67  35  30 S26G35    29.65F
MILLARD        MOSUNNY   68  39  34 S16G28    29.65F
LINCOLN        SUNNY     70  39  32 S32G41    29.61F
NEBRASKA CITY  MOSUNNY   68  27  21 S26G39    29.68F
BEATRICE       SUNNY     69  40  35 S26G37    29.62F
FALLS CITY     MOSUNNY   67  36  31 S23G35    29.71F

...NORTHERN KANSAS...

CITY           SKY/WX    TMP DP  RH WIND       PRES   REMARKS
GOODLAND       SUNNY     69  41  36 NW23G29   29.63R
HILL CITY      MOSUNNY   70  43  37 NW9       29.55
NORTON         SUNNY     64  41  42 NW5       29.54R
PHILLIPSBURG   SUNNY     70  37  30 S10       29.53F
SMITH CENTER   SUNNY     66  37  34 S20G26    29.55F
HAYS           CLOUDY    69  43  38 S25G33    29.54F
RUSSELL        CLOUDY    69  42  37 S31G38    29.56F
CONCORDIA      SUNNY     66  43  43 S31G43    29.60F
SALINA         SUNNY     70  44  39 S37G49    29.61F
TOPEKA         SUNNY     70  38  31 S24G37    29.74F



USA.gov is the U.S. government's official web portal to all federal, state and local government web resources and services.